,,,PA_Meas_PMT16A,,PR_Meas_QMR101_102,,RH_Meas_QMH101,,SR_Meas_QMS101,,TA_Meas_QMH101,,GenWind,,GenWind,
date,time,status,PA,status,PR,status,RH,status,SR,status,TA,status,DirAvg,status,SpdAvg,
2010-12-18, 00:00:04,VALID,1003.2,VALID,0,INVALID,163.739,VALID,0,VALID,24.0132,VALID,125,VALID,0.43125,
2010-12-18, 00:01:04,VALID,1003.16,VALID,0,INVALID,163.739,VALID,0,VALID,23.9937,VALID,125,VALID,0.683984,
2010-12-18, 00:02:04,VALID,1003.16,VALID,0,INVALID,163.693,VALID,0,VALID,23.9937,VALID,125,VALID,0.606641,
2010-12-18, 00:03:04,VALID,1003.16,VALID,0,INVALID,163.731,VALID,0,VALID,23.9742,VALID,125,VALID,0.691406,
2010-12-18, 00:04:04,VALID,1003.15,VALID,0,INVALID,163.693,VALID,0,VALID,23.9761,VALID,125,VALID,0.587109,
2010-12-18, 00:05:04,VALID,1003.18,VALID,0,INVALID,163.723,VALID,0,VALID,23.9371,VALID,125,VALID,0.657031,
2010-12-18, 00:06:04,VALID,1003.19,VALID,0,INVALID,163.731,VALID,0,VALID,23.8964,VALID,125,VALID,0.792188,
2010-12-18, 00:07:04,VALID,1003.19,VALID,0,INVALID,163.693,VALID,0,VALID,23.9159,VALID,125,VALID,0.645312,
2010-12-18, 00:08:04,VALID,1003.19,VALID,0,INVALID,163.723,VALID,0,VALID,23.9353,VALID,125,VALID,0.453906,
2010-12-18, 00:09:04,VALID,1003.17,VALID,0,INVALID,163.716,VALID,0,VALID,23.9566,VALID,125,VALID,0.143359,
2010-12-18, 00:10:04,VALID,1003.16,VALID,0,INVALID,163.754,VALID,0,VALID,23.8964,VALID,125,VALID,0.0738281,
2010-12-18, 00:11:04,VALID,1003.17,VALID,0,INVALID,163.731,VALID,0,VALID,23.8787,VALID,125,VALID,0.111328,
2010-12-18, 00:12:04,VALID,1003.12,VALID,0,INVALID,163.731,VALID,0,VALID,23.8787,VALID,125,VALID,0,
2010-12-18, 00:13:04,VALID,1003.11,VALID,0,INVALID,163.701,VALID,0,VALID,23.8203,VALID,125,VALID,0,
2010-12-18, 00:14:04,VALID,1003.07,VALID,0,INVALID,163.723,VALID,0,VALID,23.7991,VALID,125,VALID,0,
2010-12-18, 00:15:04,VALID,1003.09,VALID,0,INVALID,163.723,VALID,0,VALID,23.8203,VALID,125,VALID,0,
2010-12-18, 00:16:04,VALID,1003.09,VALID,0,INVALID,163.754,VALID,0,VALID,23.7991,VALID,125,VALID,0,
2010-12-18, 00:17:04,VALID,1003.08,VALID,0,INVALID,163.716,VALID,0,VALID,23.7796,VALID,125,VALID,0,
2010-12-18, 00:18:04,VALID,1003.07,VALID,0,INVALID,163.731,VALID,0,VALID,23.7796,VALID,125,VALID,0,
2010-12-18, 00:19:04,VALID,1003.07,VALID,0,INVALID,163.739,VALID,0,VALID,23.7814,VALID,125,VALID,0,
2010-12-18, 00:20:04,VALID,1003.09,VALID,0,INVALID,163.716,VALID,0,VALID,23.7601,VALID,125,VALID,0,
2010-12-18, 00:21:04,VALID,1003.07,VALID,0,INVALID,163.731,VALID,0,VALID,23.7619,VALID,74,VALID,0.521875,
2010-12-18, 00:22:04,VALID,1003.06,VALID,0,INVALID,163.762,VALID,0,VALID,23.7017,VALID,70,VALID,0.446094,
2010-12-18, 00:23:04,VALID,1003.04,VALID,0,INVALID,163.723,VALID,0,VALID,23.6628,VALID,70,VALID,0.296484,
2010-12-18, 00:24:04,VALID,1003.05,VALID,0,INVALID,163.746,VALID,0,VALID,23.6646,VALID,70,VALID,0.304688,
2010-12-18, 00:25:04,VALID,1003.07,VALID,0,INVALID,163.723,VALID,0,VALID,23.6239,VALID,70,VALID,0.239453,
2010-12-18, 00:26:04,VALID,1003.04,VALID,0,INVALID,163.769,VALID,0,VALID,23.585,VALID,70,VALID,0.191797,
2010-12-18, 00:27:04,VALID,1003.05,VALID,0,INVALID,163.769,VALID,0,VALID,23.5868,VALID,70,VALID,0.394141,
2010-12-18, 00:28:04,VALID,1003.01,VALID,0,INVALID,163.746,VALID,0,VALID,23.5655,VALID,44,VALID,0.392188,
2010-12-18, 00:29:04,VALID,1003,VALID,0,INVALID,163.739,VALID,0,VALID,23.5266,VALID,44,VALID,0.214844,
2010-12-18, 00:30:04,VALID,1002.97,VALID,0,INVALID,163.762,VALID,0,VALID,23.5071,VALID,44,VALID,0,
2010-12-18, 00:31:04,VALID,1002.97,VALID,0,INVALID,163.746,VALID,0,VALID,23.5089,VALID,44,VALID,0,
2010-12-18, 00:32:04,VALID,1002.96,VALID,0,INVALID,163.769,VALID,0,VALID,23.47,VALID,44,VALID,0,
2010-12-18, 00:33:04,VALID,1002.95,VALID,0,INVALID,163.762,VALID,0,VALID,23.4505,VALID,44,VALID,0,
2010-12-18, 00:34:04,VALID,1002.96,VALID,0,INVALID,163.754,VALID,0,VALID,23.4293,VALID,44,VALID,0,
2010-12-18, 00:35:04,VALID,1002.94,VALID,0,INVALID,163.754,VALID,0,VALID,23.4505,VALID,44,VALID,0.0230469,
2010-12-18, 00:36:04,VALID,1002.96,VALID,0,INVALID,163.754,VALID,0,VALID,23.47,VALID,44,VALID,0.344141,
2010-12-18, 00:37:04,VALID,1002.96,VALID,0,INVALID,163.746,VALID,0,VALID,23.4505,VALID,44,VALID,0,
2010-12-18, 00:38:04,VALID,1003,VALID,0,INVALID,163.769,VALID,0,VALID,23.4098,VALID,345,VALID,0.460938,
2010-12-18, 00:39:04,VALID,1002.98,VALID,0,INVALID,163.746,VALID,0,VALID,23.4311,VALID,345,VALID,0,
2010-12-18, 00:40:04,VALID,1002.95,VALID,0,INVALID,163.8,VALID,0,VALID,23.4098,VALID,345,VALID,0,
2010-12-18, 00:41:04,VALID,1002.98,VALID,0,INVALID,163.784,VALID,0,VALID,23.4116,VALID,340,VALID,0.212891,
2010-12-18, 00:42:04,VALID,1002.99,VALID,0,INVALID,163.762,VALID,0,VALID,23.4293,VALID,297,VALID,0.633984,
2010-12-18, 00:43:04,VALID,1002.97,VALID,0,INVALID,163.769,VALID,0,VALID,23.4487,VALID,297,VALID,0.137891,
2010-12-18, 00:44:04,VALID,1002.96,VALID,0,INVALID,163.739,VALID,0,VALID,23.4487,VALID,299,VALID,0.367969,
2010-12-18, 00:45:04,VALID,1002.93,VALID,0,INVALID,163.762,VALID,0,VALID,23.4275,VALID,360,VALID,0.711328,
2010-12-18, 00:46:04,VALID,1002.93,VALID,0,INVALID,163.762,VALID,0,VALID,23.4487,VALID,13,VALID,0.551953,
2010-12-18, 00:47:04,VALID,1002.94,VALID,0,INVALID,163.777,VALID,0,VALID,23.4293,VALID,15,VALID,0.558984,
2010-12-18, 00:48:04,VALID,1002.96,VALID,0,INVALID,163.762,VALID,0,VALID,23.3904,VALID,15,VALID,0.404297,
2010-12-18, 00:49:04,VALID,1002.92,VALID,0,INVALID,163.777,VALID,0,VALID,23.3514,VALID,15,VALID,0.191016,
2010-12-18, 00:50:04,VALID,1002.93,VALID,0,INVALID,163.769,VALID,0,VALID,23.332,VALID,15,VALID,0.0648438,
2010-12-18, 00:51:04,VALID,1002.92,VALID,0,INVALID,163.769,VALID,0,VALID,23.3532,VALID,304,VALID,0.245312,
2010-12-18, 00:52:04,VALID,1002.9,VALID,0,INVALID,163.754,VALID,0,VALID,23.3514,VALID,304,VALID,0.181641,
2010-12-18, 00:53:04,VALID,1002.89,VALID,0,INVALID,163.762,VALID,0,VALID,23.332,VALID,304,VALID,0.262109,
2010-12-18, 00:54:04,VALID,1002.85,VALID,0,INVALID,163.754,VALID,0,VALID,23.332,VALID,268,VALID,0.184375,
2010-12-18, 00:55:04,VALID,1002.83,VALID,0,INVALID,163.754,VALID,0,VALID,23.3514,VALID,344,VALID,0.427734,
2010-12-18, 00:56:04,VALID,1002.82,VALID,0,INVALID,163.792,VALID,0,VALID,23.3727,VALID,344,VALID,0.344531,
2010-12-18, 00:57:04,VALID,1002.8,VALID,0,INVALID,163.777,VALID,0,VALID,23.3514,VALID,344,VALID,0.00195313,
2010-12-18, 00:58:04,VALID,1002.83,VALID,0,INVALID,163.762,VALID,0,VALID,23.3709,VALID,344,VALID,0.00429688,
2010-12-18, 00:59:04,VALID,1002.8,VALID,0,INVALID,163.754,VALID,0,VALID,23.3514,VALID,344,VALID,0.328125,
2010-12-18, 01:00:04,VALID,1002.83,VALID,0,INVALID,163.777,VALID,0,VALID,23.3337,VALID,6,VALID,0.628906,
2010-12-18, 01:01:04,VALID,1002.79,VALID,0,INVALID,163.777,VALID,0,VALID,23.2541,VALID,6,VALID,0.588672,
2010-12-18, 01:02:04,VALID,1002.79,VALID,0,INVALID,163.754,VALID,0,VALID,23.2347,VALID,6,VALID,0.576172,
2010-12-18, 01:03:04,VALID,1002.76,VALID,0,INVALID,163.754,VALID,0,VALID,23.1957,VALID,6,VALID,0.539063,
2010-12-18, 01:04:04,VALID,1002.74,VALID,0,INVALID,163.777,VALID,0,VALID,23.1763,VALID,6,VALID,0.38125,
2010-12-18, 01:05:04,VALID,1002.72,VALID,0,INVALID,163.754,VALID,0,VALID,23.1374,VALID,6,VALID,0.541797,
2010-12-18, 01:06:04,VALID,1002.7,VALID,0,INVALID,163.754,VALID,0,VALID,23.1374,VALID,6,VALID,0.515234,
2010-12-18, 01:07:04,VALID,1002.65,VALID,0,INVALID,163.777,VALID,0,VALID,23.1374,VALID,6,VALID,0.588281,
2010-12-18, 01:08:04,VALID,1002.65,VALID,0,INVALID,163.754,VALID,0,VALID,23.1374,VALID,5,VALID,0.719531,
2010-12-18, 01:09:04,VALID,1002.61,VALID,0,INVALID,163.815,VALID,0,VALID,23.1374,VALID,4,VALID,0.6125,
2010-12-18, 01:10:04,VALID,1002.62,VALID,0,INVALID,163.784,VALID,0,VALID,23.1179,VALID,1,VALID,0.778125,
2010-12-18, 01:11:04,VALID,1002.62,VALID,0,INVALID,163.784,VALID,0,VALID,23.1179,VALID,360,VALID,0.712891,
2010-12-18, 01:12:04,VALID,1002.66,VALID,0,INVALID,163.762,VALID,0,VALID,23.1356,VALID,357,VALID,0.807422,
2010-12-18, 01:13:04,VALID,1002.68,VALID,0,INVALID,163.754,VALID,0,VALID,23.178,VALID,357,VALID,0.675,
2010-12-18, 01:14:04,VALID,1002.67,VALID,0,INVALID,163.784,VALID,0,VALID,23.1568,VALID,357,VALID,0.547266,
2010-12-18, 01:15:04,VALID,1002.7,VALID,0,INVALID,163.8,VALID,0,VALID,23.1568,VALID,357,VALID,0.457031,
2010-12-18, 01:16:04,VALID,1002.7,VALID,0,INVALID,163.777,VALID,0,VALID,23.1763,VALID,357,VALID,0.384766,
2010-12-18, 01:17:04,VALID,1002.71,VALID,0,INVALID,163.769,VALID,0,VALID,23.1551,VALID,357,VALID,0.355469,
2010-12-18, 01:18:04,VALID,1002.7,VALID,0,INVALID,163.762,VALID,0,VALID,23.1763,VALID,357,VALID,0.133594,
2010-12-18, 01:19:04,VALID,1002.7,VALID,0,INVALID,163.784,VALID,0,VALID,23.1551,VALID,357,VALID,0.380859,
2010-12-18, 01:20:04,VALID,1002.71,VALID,0,INVALID,163.777,VALID,0,VALID,23.1975,VALID,357,VALID,0.661328,
2010-12-18, 01:21:04,VALID,1002.69,VALID,0,INVALID,163.777,VALID,0,VALID,23.217,VALID,357,VALID,0.712891,
2010-12-18, 01:22:04,VALID,1002.7,VALID,0,INVALID,163.777,VALID,0,VALID,23.2364,VALID,8,VALID,0.755078,
2010-12-18, 01:23:04,VALID,1002.71,VALID,0,INVALID,163.784,VALID,0,VALID,23.2364,VALID,8,VALID,0.678906,
2010-12-18, 01:24:04,VALID,1002.7,VALID,0,INVALID,163.777,VALID,0,VALID,23.2152,VALID,8,VALID,0.704687,
2010-12-18, 01:25:04,VALID,1002.69,VALID,0,INVALID,163.784,VALID,0,VALID,23.2152,VALID,8,VALID,0.728516,
2010-12-18, 01:26:04,VALID,1002.68,VALID,0,INVALID,163.784,VALID,0,VALID,23.2152,VALID,8,VALID,0.696875,
2010-12-18, 01:27:04,VALID,1002.69,VALID,0,INVALID,163.784,VALID,0,VALID,23.217,VALID,8,VALID,0.600391,
2010-12-18, 01:28:04,VALID,1002.69,VALID,0,INVALID,163.784,VALID,0,VALID,23.2152,VALID,8,VALID,0.5625,
2010-12-18, 01:29:04,VALID,1002.68,VALID,0,INVALID,163.762,VALID,0,VALID,23.217,VALID,6,VALID,0.528906,
2010-12-18, 01:30:04,VALID,1002.69,VALID,0,INVALID,163.746,VALID,0,VALID,23.1551,VALID,6,VALID,0.578906,
2010-12-18, 01:31:04,VALID,1002.68,VALID,0,INVALID,163.777,VALID,0,VALID,23.1763,VALID,6,VALID,0.430469,
2010-12-18, 01:32:04,VALID,1002.69,VALID,0,INVALID,163.784,VALID,0,VALID,23.1957,VALID,6,VALID,0.358984,
2010-12-18, 01:33:04,VALID,1002.66,VALID,0,INVALID,163.792,VALID,0,VALID,23.2347,VALID,6,VALID,0.303125,
2010-12-18, 01:34:04,VALID,1002.63,VALID,0,INVALID,163.777,VALID,0,VALID,23.2134,VALID,6,VALID,0.264062,
2010-12-18, 01:35:04,VALID,1002.61,VALID,0,INVALID,163.777,VALID,0,VALID,23.2754,VALID,6,VALID,0,
2010-12-18, 01:36:04,VALID,1002.65,VALID,0,INVALID,163.777,VALID,0,VALID,23.2736,VALID,6,VALID,0,
2010-12-18, 01:37:04,VALID,1002.65,VALID,0,INVALID,163.769,VALID,0,VALID,23.2931,VALID,6,VALID,0,
2010-12-18, 01:38:04,VALID,1002.66,VALID,0,INVALID,163.784,VALID,0,VALID,23.2931,VALID,6,VALID,0,
2010-12-18, 01:39:04,VALID,1002.65,VALID,0,INVALID,163.754,VALID,0,VALID,23.3143,VALID,6,VALID,0,
2010-12-18, 01:40:04,VALID,1002.64,VALID,0,INVALID,163.777,VALID,0,VALID,23.3125,VALID,6,VALID,0,
2010-12-18, 01:41:04,VALID,1002.66,VALID,0,INVALID,163.754,VALID,0,VALID,23.3143,VALID,6,VALID,0,
2010-12-18, 01:42:04,VALID,1002.65,VALID,0,INVALID,163.739,VALID,0,VALID,23.2948,VALID,6,VALID,0,
2010-12-18, 01:43:04,VALID,1002.62,VALID,0,INVALID,163.762,VALID,0,VALID,23.2736,VALID,6,VALID,0,
2010-12-18, 01:44:04,VALID,1002.65,VALID,0,INVALID,163.762,VALID,0,VALID,23.2948,VALID,6,VALID,0,
2010-12-18, 01:45:04,VALID,1002.67,VALID,0,INVALID,163.769,VALID,0,VALID,23.2948,VALID,6,VALID,0,
2010-12-18, 01:46:04,VALID,1002.68,VALID,0,INVALID,163.754,VALID,0,VALID,23.2948,VALID,6,VALID,0,
2010-12-18, 01:47:04,VALID,1002.67,VALID,0,INVALID,163.754,VALID,0,VALID,23.2948,VALID,6,VALID,0,
2010-12-18, 01:48:04,VALID,1002.66,VALID,0,INVALID,163.769,VALID,0,VALID,23.2736,VALID,6,VALID,0.00976563,
2010-12-18, 01:49:04,VALID,1002.69,VALID,0,INVALID,163.769,VALID,0,VALID,23.2347,VALID,6,VALID,0.296484,
2010-12-18, 01:50:04,VALID,1002.67,VALID,0,INVALID,163.784,VALID,0,VALID,23.2559,VALID,6,VALID,0.301172,
2010-12-18, 01:51:04,VALID,1002.68,VALID,0,INVALID,163.746,VALID,0,VALID,23.2347,VALID,6,VALID,0.192969,
2010-12-18, 01:52:04,VALID,1002.64,VALID,0,INVALID,163.746,VALID,0,VALID,23.2559,VALID,6,VALID,0,
2010-12-18, 01:53:04,VALID,1002.66,VALID,0,INVALID,163.769,VALID,0,VALID,23.2134,VALID,6,VALID,0,
2010-12-18, 01:54:04,VALID,1002.68,VALID,0,INVALID,163.792,VALID,0,VALID,23.2541,VALID,6,VALID,0.0179687,
2010-12-18, 01:55:04,VALID,1002.68,VALID,0,INVALID,163.792,VALID,0,VALID,23.2754,VALID,6,VALID,0.25,
2010-12-18, 01:56:04,VALID,1002.66,VALID,0,INVALID,163.754,VALID,0,VALID,23.2559,VALID,6,VALID,0.210938,
2010-12-18, 01:57:04,VALID,1002.61,VALID,0,INVALID,163.762,VALID,0,VALID,23.2771,VALID,6,VALID,0.075,
2010-12-18, 01:58:04,VALID,1002.56,VALID,0,INVALID,163.769,VALID,0,VALID,23.2347,VALID,6,VALID,0.2,
2010-12-18, 01:59:04,VALID,1002.56,VALID,0,INVALID,163.807,VALID,0,VALID,23.2559,VALID,6,VALID,0.229687,
2010-12-18, 02:00:04,VALID,1002.53,VALID,0,INVALID,163.769,VALID,0,VALID,23.2152,VALID,6,VALID,0.458594,
2010-12-18, 02:01:04,VALID,1002.54,VALID,0,INVALID,163.784,VALID,0,VALID,23.1957,VALID,6,VALID,0.302734,
2010-12-18, 02:02:04,VALID,1002.55,VALID,0,INVALID,163.769,VALID,0,VALID,23.1763,VALID,6,VALID,0.339063,
2010-12-18, 02:03:04,VALID,1002.54,VALID,0,INVALID,163.762,VALID,0,VALID,23.178,VALID,6,VALID,0.261719,
2010-12-18, 02:04:04,VALID,1002.57,VALID,0,INVALID,163.777,VALID,0,VALID,23.1568,VALID,6,VALID,0.198047,
2010-12-18, 02:05:04,VALID,1002.58,VALID,0,INVALID,163.784,VALID,0,VALID,23.1356,VALID,6,VALID,0.296094,
2010-12-18, 02:06:04,VALID,1002.58,VALID,0,INVALID,163.754,VALID,0,VALID,23.1586,VALID,6,VALID,0.202734,
2010-12-18, 02:07:04,VALID,1002.58,VALID,0,INVALID,163.769,VALID,0,VALID,23.1568,VALID,6,VALID,0.212891,
2010-12-18, 02:08:04,VALID,1002.61,VALID,0,INVALID,163.777,VALID,0,VALID,23.1568,VALID,6,VALID,0.259766,
2010-12-18, 02:09:04,VALID,1002.56,VALID,0,INVALID,163.762,VALID,0,VALID,23.1568,VALID,6,VALID,0.139062,
2010-12-18, 02:10:04,VALID,1002.57,VALID,0,INVALID,163.769,VALID,0,VALID,23.1763,VALID,6,VALID,0.161328,
2010-12-18, 02:11:04,VALID,1002.54,VALID,0,INVALID,163.777,VALID,0,VALID,23.1957,VALID,6,VALID,0,
2010-12-18, 02:12:04,VALID,1002.53,VALID,0,INVALID,163.762,VALID,0,VALID,23.2152,VALID,6,VALID,0.333984,
2010-12-18, 02:13:04,VALID,1002.54,VALID,0,INVALID,163.784,VALID,0,VALID,23.1763,VALID,6,VALID,0.465625,
2010-12-18, 02:14:04,VALID,1002.56,VALID,0,INVALID,163.769,VALID,0,VALID,23.1957,VALID,6,VALID,0.419531,
2010-12-18, 02:15:04,VALID,1002.53,VALID,0,INVALID,163.769,VALID,0,VALID,23.1975,VALID,6,VALID,0.410156,
2010-12-18, 02:16:04,VALID,1002.5,VALID,0,INVALID,163.777,VALID,0,VALID,23.1957,VALID,6,VALID,0.307813,
2010-12-18, 02:17:04,VALID,1002.49,VALID,0,INVALID,163.8,VALID,0,VALID,23.1957,VALID,6,VALID,0.267969,
2010-12-18, 02:18:04,VALID,1002.46,VALID,0,INVALID,163.762,VALID,0,VALID,23.1957,VALID,6,VALID,0.278125,
2010-12-18, 02:19:04,VALID,1002.43,VALID,0,INVALID,163.792,VALID,0,VALID,23.2152,VALID,6,VALID,0.302734,
2010-12-18, 02:20:04,VALID,1002.43,VALID,0,INVALID,163.746,VALID,0,VALID,23.1957,VALID,6,VALID,0.269141,
2010-12-18, 02:21:04,VALID,1002.4,VALID,0,INVALID,163.784,VALID,0,VALID,23.2559,VALID,6,VALID,0.320703,
2010-12-18, 02:22:04,VALID,1002.4,VALID,0,INVALID,163.762,VALID,0,VALID,23.2329,VALID,6,VALID,0.129297,
2010-12-18, 02:23:04,VALID,1002.4,VALID,0,INVALID,163.746,VALID,0,VALID,23.2541,VALID,6,VALID,0,
2010-12-18, 02:24:04,VALID,1002.44,VALID,0,INVALID,163.769,VALID,0,VALID,23.2736,VALID,6,VALID,0,
2010-12-18, 02:25:04,VALID,1002.46,VALID,0,INVALID,163.777,VALID,0,VALID,23.2736,VALID,6,VALID,0,
2010-12-18, 02:26:04,VALID,1002.48,VALID,0,INVALID,163.777,VALID,0,VALID,23.3125,VALID,6,VALID,0.283203,
2010-12-18, 02:27:04,VALID,1002.5,VALID,0,INVALID,163.754,VALID,0,VALID,23.2931,VALID,6,VALID,0.489453,
2010-12-18, 02:28:04,VALID,1002.5,VALID,0,INVALID,163.784,VALID,0,VALID,23.3337,VALID,6,VALID,0.367188,
2010-12-18, 02:29:04,VALID,1002.48,VALID,0,INVALID,163.777,VALID,0,VALID,23.3125,VALID,6,VALID,0.109375,
2010-12-18, 02:30:04,VALID,1002.48,VALID,0,INVALID,163.777,VALID,0,VALID,23.3143,VALID,6,VALID,0.299219,
2010-12-18, 02:31:04,VALID,1002.46,VALID,0,INVALID,163.739,VALID,0,VALID,23.2913,VALID,6,VALID,0.123047,
2010-12-18, 02:32:04,VALID,1002.42,VALID,0,INVALID,163.769,VALID,0,VALID,23.2736,VALID,6,VALID,0.264844,
2010-12-18, 02:33:04,VALID,1002.41,VALID,0,INVALID,163.754,VALID,0,VALID,23.2347,VALID,6,VALID,0.428906,
2010-12-18, 02:34:04,VALID,1002.4,VALID,0,INVALID,163.792,VALID,0,VALID,23.2152,VALID,38,VALID,0.543359,
2010-12-18, 02:35:04,VALID,1002.41,VALID,0,INVALID,163.746,VALID,0,VALID,23.2347,VALID,38,VALID,0.456641,
2010-12-18, 02:36:04,VALID,1002.4,VALID,0,INVALID,163.754,VALID,0,VALID,23.2347,VALID,38,VALID,0.501562,
2010-12-18, 02:37:04,VALID,1002.4,VALID,0,INVALID,163.777,VALID,0,VALID,23.2347,VALID,38,VALID,0.449219,
2010-12-18, 02:38:04,VALID,1002.37,VALID,0,INVALID,163.777,VALID,0,VALID,23.2754,VALID,38,VALID,0.499609,
2010-12-18, 02:39:04,VALID,1002.38,VALID,0,INVALID,163.754,VALID,0,VALID,23.2931,VALID,38,VALID,0.266797,
2010-12-18, 02:40:04,VALID,1002.34,VALID,0,INVALID,163.769,VALID,0,VALID,23.3143,VALID,38,VALID,0.248828,
2010-12-18, 02:41:04,VALID,1002.36,VALID,0,INVALID,163.777,VALID,0,VALID,23.3125,VALID,38,VALID,0.247656,
2010-12-18, 02:42:04,VALID,1002.33,VALID,0,INVALID,163.769,VALID,0,VALID,23.3514,VALID,38,VALID,0.281641,
2010-12-18, 02:43:04,VALID,1002.35,VALID,0,INVALID,163.754,VALID,0,VALID,23.3904,VALID,38,VALID,0.259375,
2010-12-18, 02:44:04,VALID,1002.34,VALID,0,INVALID,163.746,VALID,0,VALID,23.47,VALID,38,VALID,0.287891,
2010-12-18, 02:45:04,VALID,1002.32,VALID,0,INVALID,163.754,VALID,0,VALID,23.47,VALID,38,VALID,0.278125,
2010-12-18, 02:46:04,VALID,1002.32,VALID,0,INVALID,163.762,VALID,0,VALID,23.4682,VALID,38,VALID,0.432813,
2010-12-18, 02:47:04,VALID,1002.29,VALID,0,INVALID,163.754,VALID,0,VALID,23.4487,VALID,38,VALID,0.268359,
2010-12-18, 02:48:04,VALID,1002.3,VALID,0,INVALID,163.762,VALID,0,VALID,23.4098,VALID,38,VALID,0.356641,
2010-12-18, 02:49:04,VALID,1002.24,VALID,0,INVALID,163.746,VALID,0,VALID,23.4311,VALID,33,VALID,0.472656,
2010-12-18, 02:50:04,VALID,1002.24,VALID,0,INVALID,163.746,VALID,0,VALID,23.3904,VALID,27,VALID,0.5625,
2010-12-18, 02:51:04,VALID,1002.22,VALID,0,INVALID,163.769,VALID,0,VALID,23.3904,VALID,27,VALID,0.394922,
2010-12-18, 02:52:04,VALID,1002.17,VALID,0,INVALID,163.739,VALID,0,VALID,23.4293,VALID,27,VALID,0.494922,
2010-12-18, 02:53:04,VALID,1002.16,VALID,0,INVALID,163.762,VALID,0,VALID,23.4116,VALID,27,VALID,0.521484,
2010-12-18, 02:54:04,VALID,1002.16,VALID,0,INVALID,163.746,VALID,0,VALID,23.4116,VALID,27,VALID,0.399609,
2010-12-18, 02:55:04,VALID,1002.13,VALID,0,INVALID,163.784,VALID,0,VALID,23.4116,VALID,27,VALID,0.423438,
2010-12-18, 02:56:04,VALID,1002.11,VALID,0,INVALID,163.746,VALID,0,VALID,23.3709,VALID,27,VALID,0.473047,
2010-12-18, 02:57:04,VALID,1002.1,VALID,0,INVALID,163.8,VALID,0,VALID,23.4116,VALID,27,VALID,0.269141,
2010-12-18, 02:58:04,VALID,1002.09,VALID,0,INVALID,163.769,VALID,0,VALID,23.4311,VALID,27,VALID,0.328516,
2010-12-18, 02:59:04,VALID,1002.06,VALID,0,INVALID,163.723,VALID,0,VALID,23.4293,VALID,27,VALID,0.383594,
2010-12-18, 03:00:04,VALID,1002.08,VALID,0,INVALID,163.762,VALID,0,VALID,23.4682,VALID,27,VALID,0.437109,
2010-12-18, 03:01:04,VALID,1002.04,VALID,0,INVALID,163.746,VALID,0,VALID,23.5478,VALID,27,VALID,0.38125,
2010-12-18, 03:02:04,VALID,1001.99,VALID,0,INVALID,163.746,VALID,0,VALID,23.5868,VALID,27,VALID,0.397266,
2010-12-18, 03:03:04,VALID,1002.01,VALID,0,INVALID,163.731,VALID,0,VALID,23.6062,VALID,27,VALID,0.332812,
2010-12-18, 03:04:04,VALID,1002,VALID,0,INVALID,163.731,VALID,0,VALID,23.6239,VALID,27,VALID,0.350781,
2010-12-18, 03:05:04,VALID,1002.01,VALID,0,INVALID,163.746,VALID,0,VALID,23.6239,VALID,27,VALID,0.222266,
2010-12-18, 03:06:04,VALID,1002.06,VALID,0,INVALID,163.746,VALID,0,VALID,23.6044,VALID,27,VALID,0.304297,
2010-12-18, 03:07:04,VALID,1002.02,VALID,0,INVALID,163.739,VALID,0,VALID,23.6646,VALID,27,VALID,0.207813,
2010-12-18, 03:08:04,VALID,1002.07,VALID,0,INVALID,163.723,VALID,0,VALID,23.6823,VALID,27,VALID,0.101563,
2010-12-18, 03:09:04,VALID,1002.04,VALID,0,INVALID,163.739,VALID,0,VALID,23.7212,VALID,27,VALID,0,
2010-12-18, 03:10:04,VALID,1002.04,VALID,0,INVALID,163.723,VALID,0,VALID,23.7017,VALID,27,VALID,0,
2010-12-18, 03:11:04,VALID,1002.06,VALID,0,INVALID,163.769,VALID,0,VALID,23.7212,VALID,27,VALID,0,
2010-12-18, 03:12:04,VALID,1002.06,VALID,0,INVALID,163.762,VALID,0,VALID,23.7212,VALID,27,VALID,0,
2010-12-18, 03:13:04,VALID,1002.03,VALID,0,INVALID,163.739,VALID,0,VALID,23.7425,VALID,27,VALID,0,
2010-12-18, 03:14:04,VALID,1002.04,VALID,0,INVALID,163.731,VALID,0,VALID,23.723,VALID,27,VALID,0,
2010-12-18, 03:15:04,VALID,1002.01,VALID,0,INVALID,163.731,VALID,0,VALID,23.723,VALID,27,VALID,0,
2010-12-18, 03:16:04,VALID,1001.96,VALID,0,INVALID,163.716,VALID,0,VALID,23.6841,VALID,27,VALID,0.1375,
2010-12-18, 03:17:04,VALID,1001.92,VALID,0,INVALID,163.754,VALID,0,VALID,23.6646,VALID,27,VALID,0.410156,
2010-12-18, 03:18:04,VALID,1001.9,VALID,0,INVALID,163.762,VALID,0,VALID,23.7053,VALID,27,VALID,0.155859,
2010-12-18, 03:19:04,VALID,1001.9,VALID,0,INVALID,163.769,VALID,0,VALID,23.6628,VALID,27,VALID,0,
2010-12-18, 03:20:04,VALID,1001.88,VALID,0,INVALID,163.739,VALID,0,VALID,23.7017,VALID,27,VALID,0.125391,
2010-12-18, 03:21:04,VALID,1001.94,VALID,0,INVALID,163.716,VALID,0,VALID,23.7035,VALID,27,VALID,0,
2010-12-18, 03:22:04,VALID,1001.93,VALID,0,INVALID,163.754,VALID,0,VALID,23.723,VALID,27,VALID,0,
2010-12-18, 03:23:04,VALID,1001.96,VALID,0,INVALID,163.716,VALID,0,VALID,23.7017,VALID,27,VALID,0,
2010-12-18, 03:24:04,VALID,1001.97,VALID,0,INVALID,163.746,VALID,0,VALID,23.6823,VALID,27,VALID,0,
2010-12-18, 03:25:04,VALID,1001.95,VALID,0,INVALID,163.746,VALID,0,VALID,23.7212,VALID,27,VALID,0,
2010-12-18, 03:26:04,VALID,1001.97,VALID,0,INVALID,163.739,VALID,0,VALID,23.661,VALID,27,VALID,0,
2010-12-18, 03:27:04,VALID,1001.95,VALID,0,INVALID,163.723,VALID,0,VALID,23.6628,VALID,27,VALID,0,
2010-12-18, 03:28:04,VALID,1001.96,VALID,0,INVALID,163.754,VALID,0,VALID,23.6823,VALID,27,VALID,0,
2010-12-18, 03:29:04,VALID,1001.96,VALID,0,INVALID,163.746,VALID,0,VALID,23.6416,VALID,27,VALID,0,
2010-12-18, 03:30:04,VALID,1001.97,VALID,0,INVALID,163.731,VALID,0.100563,VALID,23.661,VALID,27,VALID,0,
2010-12-18, 03:31:04,VALID,1001.98,VALID,0,INVALID,163.754,VALID,0.100563,VALID,23.6434,VALID,27,VALID,0,
2010-12-18, 03:32:04,VALID,1001.98,VALID,0,INVALID,163.746,VALID,0,VALID,23.6026,VALID,27,VALID,0,
2010-12-18, 03:33:04,VALID,1002,VALID,0,INVALID,163.731,VALID,0,VALID,23.6044,VALID,27,VALID,0.10625,
2010-12-18, 03:34:04,VALID,1002.03,VALID,0,INVALID,163.754,VALID,0,VALID,23.5832,VALID,27,VALID,0.127344,
2010-12-18, 03:35:04,VALID,1002.03,VALID,0,INVALID,163.769,VALID,0.100563,VALID,23.6239,VALID,27,VALID,0.239844,
2010-12-18, 03:36:04,VALID,1002.03,VALID,0,INVALID,163.731,VALID,0,VALID,23.5637,VALID,27,VALID,0.00585938,
2010-12-18, 03:37:04,VALID,1002.04,VALID,0,INVALID,163.762,VALID,0,VALID,23.5637,VALID,27,VALID,0,
2010-12-18, 03:38:04,VALID,1002.01,VALID,0,INVALID,163.731,VALID,0,VALID,23.5637,VALID,27,VALID,0,
2010-12-18, 03:39:04,VALID,1002.05,VALID,0,INVALID,163.739,VALID,0,VALID,23.5248,VALID,27,VALID,0,
2010-12-18, 03:40:04,VALID,1002.06,VALID,0,INVALID,163.754,VALID,0,VALID,23.5655,VALID,27,VALID,0.0410156,
2010-12-18, 03:41:04,VALID,1002.04,VALID,0,INVALID,163.762,VALID,0,VALID,23.5443,VALID,27,VALID,0.103906,
2010-12-18, 03:42:04,VALID,1002.12,VALID,0,INVALID,163.739,VALID,0.100563,VALID,23.5655,VALID,27,VALID,0.0390625,
2010-12-18, 03:43:04,VALID,1002.12,VALID,0,INVALID,163.762,VALID,0.100563,VALID,23.546,VALID,27,VALID,0,
2010-12-18, 03:44:04,VALID,1002.16,VALID,0,INVALID,163.769,VALID,0.100563,VALID,23.5248,VALID,27,VALID,0,
2010-12-18, 03:45:04,VALID,1002.16,VALID,0,INVALID,163.746,VALID,0,VALID,23.5266,VALID,27,VALID,0,
2010-12-18, 03:46:04,VALID,1002.16,VALID,0,INVALID,163.769,VALID,0.100563,VALID,23.5266,VALID,27,VALID,0,